Find Starlink 6147

NORAD ID: 57120 Int'l Des: 2023-090 Owner: SPXS Country: US Constellation: starlink operational
LEOCIRCULAR

Live Position

Loading 3D Globe...

About Starlink 6147

Description loading...

Upcoming Passes

Passes for default location (London). Set your location on the main map for personalized predictions.

Altitude History

Loading altitude history...

Two-Line Element Set

1 57120U 23090V 26121.00016632 .00045140 00000-0 16637-2 0 9998
2 57120 43.0013 346.0363 0001011 33.5473 326.5442 15.27106014158334
Epoch: May 1, 2026 • Age: 12 hours

Current Status

Altitude 487.5 km
Velocity 7.62 km/s
Sub-Earth Point -17.16°S, 82.33°W
Launch Date Jun 23, 2023
Age 2.8 years
Type internet

Technical Details

Classification Payload
Mass 305.00 kg
Dry Mass 290.00 kg
Total Mass 305.00 kg
Length 0.20 m
Diameter 2.80 m
Span 9.00 m
Shape Box + pan
Manufacturer SPXS
Bus Type Starlink
Phase Status In Orbit
Owner/State SPXS/US

Most Searched